Regional Weather Roundup
Issued by NWS Charleston, SC

Home | Current Version | Previous Version | Text Only | Print | Product List | Glossary On
Versions: 1 2 3 4 5 6 7 8 9 10 11 12 13 14 15 16 17 18 19 20 21 22 23 24 25 26 27 28 29 30 31 32 33 34 35 36 37 38 39 40 41 42 43 44 45 46 47 48 49 50
000
ASUS42 KCHS 260812
RWRCHS

REGIONAL WEATHER ROUNDUP
NATIONAL WEATHER SERVICE CHARLESTON SC
400 AM EDT FRI MAY 26 2017

NOTE: "FAIR" INDICATES FEW OR NO CLOUDS BELOW 12,000 FEET WITH NO
SIGNIFICANT WEATHER AND/OR OBSTRUCTIONS TO VISIBILITY.

NOT ALL STATIONS ARE QUALITY CONTROLLED. USE DATA WITH CAUTION...
ESPECIALLY DEWPOINT OBSERVATIONS.

SCZ027-030-031-034>040-042>050-260900-
...SOUTHEAST SOUTH CAROLINA...

CITY           SKY/WX    TMP DP  RH WIND       PRES   REMARKS
N CHARLESTON   CLEAR     63  53  70 W9        29.92R
WATERFRONT PRK   N/A     67  58  72 W5        29.91R
JOHNS ISLAND   FAIR      64  57  77 SW6       29.92S
PINOPOLIS        N/A     64  57  77 W12       29.81S
MONCKS CORNER  FAIR      61  52  72 SW3       29.91S
SUMMERVILLE    FAIR      57  54  88 SW3       29.92S
BEAUFORT MCAS  CLEAR     64  55  72 W8        29.93S
BEAUFORT ARPT  NOT AVBL
HILTON HEAD IS NOT AVBL
WALTERBORO     SUNNY     59  54  82 SW6       29.93S
ALLENDALE      FAIR      59  55  88 CALM      29.93R

...SOUTHERN MIDLANDS AND PEE DEE...

CITY           SKY/WX    TMP DP  RH WIND       PRES   REMARKS
GEORGETOWN     FAIR      59  54  82 SW6       29.92R
KINGSTREE      FAIR      59  52  77 CALM      29.90S
ORANGEBURG     CLEAR     57  53  86 S3        29.92R
BARNWELL       FAIR      57  55  94 CALM      29.93S
AIKEN          FAIR      55  50  82 SW3       29.96R
MANNING        NOT AVBL
COLUMBIA       CLEAR     58  52  80 W5        29.90R
SUMTER         CLEAR     61  52  72 W8        29.88R
FLORENCE       CLEAR     61  54  77 SW8       29.89R
MYRTLE BEACH   CLEAR     65  54  67 W13       29.90R
N MYRTLE BEACH CLEAR     66  54  65 W10       29.88R

$$

GAZ063-065-086>088-099>101-113>116-118-119-134>141-150-260900-
...SOUTHEAST GEORGIA...

CITY           SKY/WX    TMP DP  RH WIND       PRES   REMARKS
SAVANNAH ARPT  CLEAR     59  52  77 W6        29.95S
HUNTER AAF     CLEAR     59  58  98 CALM      29.92S
FORT STEWART   CLEAR     56  54  91 CALM      29.93S
STATESBORO     CLEAR     59  59 100 CALM      29.95R
SYLVANIA       SUNNY     58  57  98 CALM      29.95R
CLAXTON        FAIR     N/A N/A N/A CALM      29.96R

...CSRA...CENTRAL AND FAR SOUTHEAST GEORGIA...

CITY           SKY/WX    TMP DP  RH WIND       PRES   REMARKS
THOMSON        CLEAR     56  53  89 N5        30.00R
AUGUSTA-BUSH   CLEAR     62  53  72 W10       29.93R
AUGUSTA-DANIEL CLEAR     65  50  58 W7        29.94R
SWAINSBORO     FAIR      55  55 100 CALM      29.97R
VIDALIA        CLEAR     59  55  88 CALM      29.96R
EASTMAN        FOG       54  54 100 CALM      29.99S VSB 1
HAZLEHURST     FAIR      60  60 100 CALM      29.96R
ALMA           CLEAR     55  53  93 CALM      29.96S
WAYCROSS       CLEAR     57  57 100 S3        29.97S
JESUP          FAIR      54  50  87 CALM      29.97S
BAXLEY         FAIR      55  55 100 CALM      29.96S
BRUNSWICK      CLEAR     59  55  88 W5        29.97S
SAINT SIMONS   CLEAR     65  57  75 W7        29.96R

$$

SCZ027-028-034-036>038-045-046-048>050-GAZ119-141-260900-
...LAKE AND SUPPLEMENTAL COASTAL OBSERVATIONS...

STATION/POSITION TIME  TEMP    WIND        PRES    WAVE   SWELL
                       AIR SEA DIR/SP/G            HT/PER HT/PER/DIR
                 (UTC) (F)     (DEG/KT/KT) (MB)    (FT/S) (FT/S/D)
WINYAH BAY       0645   65     260/  6     1012.0
LAKE MURRAY      0720   67     260/ 12/ 16 1011.9R
ACE BASIN NERRS  NOT AVBL
FORT PULASKI     0748   66     270/  4/  5 1014.0R
SAPELO ISLAND    0700   67     290/  1     1014.0

$$

ANZ835-935-AMZ111-154-330-350-352-354-370-450-454-472-260900-
...C-MAN AND BUOY OBSERVATIONS...

STATION/POSITION TIME  TEMP    WIND        PRES    WAVE   SWELL
                       AIR SEA DIR/SP/G            HT/PER HT/PER/DIR
                 (UTC) (F)     (DEG/KT/KT) (MB)    (FT/S) (FT/S/D)
BUOY 41004       0750   74 74  260/ 19/ 23 1012.8R   5/ 6   2/150/ 8
BUOY 41008       0650   75 77  290/ 14/ 16 1013.5    2/ 3   2/ 90/ 8
FOLLY BEACH CMAN 0700   66     250/  6/  9 1013.5S
CAPERS NEARSHORE 0708   77 76  270/ 17/ 21 1012.5R
FRIPP NEARSHORE  0708   72 76  280/ 14/ 17 1013.0R


STATION/POSITION TIME  TEMP    WIND        PRES    WAVE   SWELL
                       AIR SEA DIR/SP/G            HT/PER HT/PER/DIR
                 (UTC) (F)     (DEG/KT/KT) (MB)    (FT/S) (FT/S/D)
5E ST. MARYS GA  0730      78                N/A     2/ 3
FRYING PAN BUOY  0750   74 75  260/ 21/ 27 1011.8R
BUOY 41025       0750   73 78  270/ 29/ 33 1007.8R   9/ 8   3/220/13
CAPE LOOKOUT NC  0700   71     260/ 24/ 29 1009.0R
BUOY 41002       0750   76 76  260/ 19/ 23 1013.3R   9/ 9   5/280/ 9
BUOY 41010       0750   80 78  260/ 12/ 14 1013.8R   5/ 6   3/200/ 6
ST AUGUSTINE FL  0800   64 75  260/  6/  7 1015.8R


$$




USA.gov is the U.S. government's official web portal to all federal, state and local government web resources and services.